When you browse on this site, cookies collect data to enhance your experience and personalize the content and advertising you see.
Visit our Privacy Policy to learn more. By continuing to use the site, you agree to this use of cookies and data.
  • In Hungary
  • List of Countries
  • For 7 days
  • Water Temperature
  • Satellite Maps
  • Weather Map
  • News
  • Weather Widgets
  • user-avatar
    Login

    Hourly Weather Chester

    Today, 18 February, Monday

    Time Temperature Precipitation Wind Pressure Humidity
    00:00 +7°C° 0 mm 5 mps 756 mmHg 84%
    01:00 +7°C° 0 mm 5 mps 756 mmHg 85%
    02:00 +6°C° 0 mm 5 mps 756 mmHg 85%
    03:00 +6°C° 0 mm 5 mps 756 mmHg 86%
    04:00 +6°C° 0 mm 5 mps 756 mmHg 86%
    05:00 +6°C° 0 mm 5 mps 756 mmHg 86%
    06:00 +6°C° 0 mm 5 mps 756 mmHg 87%
    07:00 +6°C° 0 mm 5 mps 756 mmHg 85%
    08:00 +7°C° 0 mm 5 mps 756 mmHg 83%
    09:00 +7°C° 0 mm 5 mps 756 mmHg 81%
    10:00 +8°C° 0 mm 5 mps 756 mmHg 75%
    11:00 +9°C° 0 mm 5 mps 756 mmHg 69%
    12:00 +9°C° 0 mm 6 mps 756 mmHg 62%
    13:00 +9°C° 0 mm 6 mps 756 mmHg 61%
    14:00 +9°C° 0 mm 6 mps 756 mmHg 61%
    15:00 +9°C° 0 mm 6 mps 756 mmHg 60%
    16:00 +8°C° 0 mm 5 mps 756 mmHg 65%
    17:00 +7°C° 0 mm 5 mps 756 mmHg 71%
    18:00 +6°C° 0 mm 4 mps 756 mmHg 77%
    19:00 +6°C° 0 mm 4 mps 757 mmHg 79%
    20:00 +6°C° 0 mm 4 mps 757 mmHg 81%
    21:00 +6°C° 0 mm 4 mps 757 mmHg 83%
    22:00 +6°C° 0 mm 4 mps 758 mmHg 84%
    23:00 +5°C° 0 mm 4 mps 758 mmHg 85%

    Tomorrow, 19 February, Tuesday

    Time Temperature Precipitation Wind Pressure Humidity
    00:00 +5°C° 0 mm 4 mps 759 mmHg 86%
    01:00 +5°C° 0 mm 4 mps 759 mmHg 86%
    02:00 +5°C° 0 mm 4 mps 759 mmHg 87%
    03:00 +5°C° 0 mm 3 mps 759 mmHg 88%
    04:00 +4°C° 0 mm 3 mps 759 mmHg 89%
    05:00 +4°C° 0 mm 3 mps 760 mmHg 90%
    06:00 +3°C° 0 mm 3 mps 760 mmHg 91%
    07:00 +4°C° 0 mm 3 mps 760 mmHg 88%
    08:00 +4°C° 0 mm 3 mps 760 mmHg 86%
    09:00 +5°C° 0 mm 3 mps 760 mmHg 84%
    10:00 +7°C° 0 mm 3 mps 760 mmHg 78%
    11:00 +7°C° 0 mm 4 mps 760 mmHg 72%
    12:00 +8°C° 0 mm 4 mps 760 mmHg 67%
    13:00 +8°C° 0.1 mm 4 mps 760 mmHg 69%
    14:00 +8°C° 0.1 mm 4 mps 759 mmHg 70%
    15:00 +8°C° 0.1 mm 4 mps 759 mmHg 72%
    16:00 +8°C° 0 mm 4 mps 759 mmHg 75%
    17:00 +8°C° 0 mm 4 mps 758 mmHg 78%
    18:00 +7°C° 0 mm 4 mps 758 mmHg 80%
    19:00 +7°C° 0.3 mm 5 mps 758 mmHg 82%
    20:00 +7°C° 0.3 mm 5 mps 758 mmHg 84%
    21:00 +7°C° 0.3 mm 5 mps 758 mmHg 86%
    22:00 +7°C° 0.8 mm 6 mps 757 mmHg 87%
    23:00 +7°C° 0.8 mm 6 mps 757 mmHg 87%

    Day after tomorrow, 20 February, Wednesday

    Time Temperature Precipitation Wind Pressure Humidity
    00:00 +7°C° 0.8 mm 6 mps 757 mmHg 88%
    01:00 +8°C° 0.9 mm 6 mps 757 mmHg 88%
    02:00 +8°C° 0.9 mm 6 mps 756 mmHg 88%
    03:00 +8°C° 0.9 mm 6 mps 756 mmHg 88%
    04:00 +8°C° 0.4 mm 6 mps 756 mmHg 87%
    05:00 +8°C° 0.4 mm 6 mps 756 mmHg 86%
    06:00 +8°C° 0.4 mm 5 mps 756 mmHg 86%
    07:00 +9°C° 0 mm 6 mps 756 mmHg 85%
    08:00 +9°C° 0 mm 6 mps 756 mmHg 85%
    09:00 +9°C° 0 mm 6 mps 756 mmHg 85%
    10:00 +10°C° 0.2 mm 6 mps 756 mmHg 85%
    11:00 +10°C° 0.2 mm 6 mps 756 mmHg 84%
    12:00 +12°C° 0.2 mm 5 mps 757 mmHg 84%
    13:00 +12°C° 0 mm 5 mps 757 mmHg 84%
    14:00 +12°C° 0 mm 5 mps 757 mmHg 84%
    15:00 +12°C° 0 mm 4 mps 757 mmHg 84%
    16:00 +11°C° 0 mm 4 mps 758 mmHg 85%
    17:00 +11°C° 0 mm 4 mps 758 mmHg 87%
    18:00 +10°C° 0 mm 4 mps 759 mmHg 88%
    19:00 +10°C° 0 mm 3 mps 759 mmHg 89%
    20:00 +9°C° 0 mm 3 mps 760 mmHg 90%
    21:00 +9°C° 0 mm 2 mps 760 mmHg 90%
    22:00 +9°C° 0 mm 2 mps 761 mmHg 91%
    23:00 +10°C° 0 mm 3 mps 761 mmHg 92%

    21 February, Thursday

    Time Temperature Precipitation Wind Pressure Humidity
    00:00 +10°C° 0 mm 3 mps 761 mmHg 92%
    01:00 +10°C° 0 mm 3 mps 762 mmHg 93%
    02:00 +11°C° 0 mm 3 mps 762 mmHg 93%
    03:00 +11°C° 0 mm 3 mps 762 mmHg 93%
    04:00 +11°C° 0 mm 3 mps 762 mmHg 93%
    05:00 +11°C° 0 mm 3 mps 763 mmHg 92%
    06:00 +11°C° 0 mm 3 mps 763 mmHg 92%
    07:00 +11°C° 0 mm 3 mps 764 mmHg 90%
    08:00 +11°C° 0 mm 3 mps 764 mmHg 88%
    09:00 +11°C° 0 mm 3 mps 765 mmHg 87%
    10:00 +11°C° 0 mm 4 mps 765 mmHg 83%
    11:00 +12°C° 0 mm 5 mps 766 mmHg 79%
    12:00 +12°C° 0 mm 5 mps 766 mmHg 76%
    13:00 +13°C° 0 mm 5 mps 766 mmHg 74%
    14:00 +13°C° 0 mm 5 mps 766 mmHg 73%
    15:00 +13°C° 0 mm 5 mps 766 mmHg 71%
    16:00 +12°C° 0 mm 5 mps 766 mmHg 75%
    17:00 +12°C° 0 mm 5 mps 766 mmHg 79%
    18:00 +11°C° 0 mm 4 mps 767 mmHg 83%
    19:00 +10°C° 0 mm 4 mps 767 mmHg 84%
    20:00 +9°C° 0 mm 5 mps 767 mmHg 85%
    21:00 +9°C° 0 mm 5 mps 768 mmHg 86%
    22:00 +8°C° 0 mm 5 mps 768 mmHg 86%
    23:00 +8°C° 0 mm 5 mps 768 mmHg 86%

    22 February, Friday

    Time Temperature Precipitation Wind Pressure Humidity
    00:00 +8°C° 0 mm 5 mps 768 mmHg 85%
    01:00 +8°C° 0 mm 5 mps 769 mmHg 85%
    02:00 +8°C° 0 mm 5 mps 769 mmHg 85%
    03:00 +8°C° 0 mm 5 mps 769 mmHg 84%
    04:00 +8°C° 0 mm 5 mps 769 mmHg 84%
    05:00 +8°C° 0 mm 5 mps 769 mmHg 85%
    06:00 +8°C° 0 mm 5 mps 770 mmHg 85%
    07:00 +8°C° 0 mm 5 mps 770 mmHg 82%
    08:00 +9°C° 0 mm 6 mps 770 mmHg 79%
    09:00 +9°C° 0 mm 6 mps 770 mmHg 76%
    10:00 +11°C° 0 mm 6 mps 770 mmHg 72%
    11:00 +13°C° 0 mm 6 mps 770 mmHg 67%
    12:00 +14°C° 0 mm 6 mps 770 mmHg 63%
    13:00 +15°C° 0 mm 6 mps 770 mmHg 64%
    14:00 +15°C° 0 mm 6 mps 770 mmHg 65%
    15:00 +15°C° 0 mm 6 mps 770 mmHg 65%
    16:00 +14°C° 0 mm 6 mps 771 mmHg 69%
    17:00 +13°C° 0 mm 5 mps 771 mmHg 74%
    18:00 +12°C° 0 mm 5 mps 771 mmHg 78%
    19:00 +10°C° 0 mm 5 mps 771 mmHg 79%
    20:00 +10°C° 0 mm 5 mps 772 mmHg 79%
    21:00 +9°C° 0 mm 5 mps 772 mmHg 80%
    22:00 +9°C° 0 mm 5 mps 772 mmHg 81%
    23:00 +8°C° 0 mm 5 mps 772 mmHg 81%

    23 February, Saturday

    Time Temperature Precipitation Wind Pressure Humidity
    00:00 +8°C° 0 mm 5 mps 773 mmHg 82%
    01:00 +8°C° 0 mm 5 mps 773 mmHg 84%
    02:00 +7°C° 0 mm 5 mps 773 mmHg 85%
    03:00 +7°C° 0 mm 4 mps 773 mmHg 87%
    04:00 +7°C° 0 mm 4 mps 773 mmHg 88%
    05:00 +7°C° 0 mm 4 mps 773 mmHg 89%
    06:00 +6°C° 0 mm 4 mps 773 mmHg 91%
    07:00 +7°C° 0 mm 4 mps 773 mmHg 89%
    08:00 +8°C° 0 mm 4 mps 773 mmHg 86%
    09:00 +8°C° 0 mm 4 mps 773 mmHg 84%
    10:00 +10°C° 0 mm 5 mps 773 mmHg 80%
    11:00 +12°C° 0 mm 5 mps 773 mmHg 76%
    12:00 +14°C° 0 mm 5 mps 773 mmHg 72%
    13:00 +14°C° 0 mm 4 mps 773 mmHg 71%
    14:00 +15°C° 0 mm 4 mps 773 mmHg 70%
    15:00 +15°C° 0 mm 4 mps 772 mmHg 69%
    16:00 +14°C° 0 mm 4 mps 772 mmHg 75%
    17:00 +12°C° 0 mm 3 mps 773 mmHg 81%
    18:00 +11°C° 0 mm 3 mps 773 mmHg 86%
    19:00 +10°C° 0 mm 2 mps 773 mmHg 88%
    20:00 +10°C° 0 mm 2 mps 773 mmHg 90%
    21:00 +9°C° 0 mm 2 mps 773 mmHg 91%
    22:00 +9°C° 0 mm 2 mps 773 mmHg 92%
    23:00 +8°C° 0 mm 2 mps 774 mmHg 92%
    Show more